[[{"header":{"parameterUnit":"m.s-1","parameterCategory":2,"la1":30.2991,"la2":30.254,"lo1":-89.0895,"lo2":-89.0444,"dy":0.0017,"dx":0.0017,"nx":28,"ny":28,"refTime":"2023-10-21T21:00:00:Z","depth":"0","parameterNumber":2,"parameterNumberName":"U-component_of_CURRENTS"},"data":[0,0,0,0,0,0,0,0,0,0,0,0,0,0,0,0,0,0,0,0,0,0,0,0,0,0,0,0,0,0,0,0,0,0,0,0,0,0,0,0,0,0,0,0,0,0,0,0,0,0,0,0,0,0,0,0,0,0,0.1276,0.1275,0,0.1206,0.1205,0.1204,0.1152,0.1151,0.1151,0.1151,0.1155,0.1156,0.1156,0,0,0,0,0,0,0,0,0,0,0,0,0,0.1395,0.1393,0.1276,0.1275,0.1274,0.1206,0.1205,0.1204,0.1152,0.1151,0.1151,0.1151,0.1155,0.1156,0.1156,0,0,0,0,0,0,0,0,0,0,0,0,0,0.1334,0.1392,0.1276,0.1242,0.1238,0.1206,0.1205,0.1204,0.1152,0.1151,0.1151,0.1151,0.1155,0.1156,0.1156,0.1168,0,0,0.1158,0.1158,0,0,0,0,0,0,0,0,0.1338,0.1329,0.1247,0.1244,0.124,0.1189,0.1249,0.1196,0.1152,0.1182,0.1151,0.115,0.1175,0.1174,0.1158,0.1168,0.1169,0.1158,0.1158,0.1159,0.1159,0,0,0,0,0,0,0,0.1342,0.1332,0.1246,0.1247,0.1242,0.1241,0.1231,0.1238,0.1182,0.118,0.1176,0.1172,0.1173,0.1157,0.1158,0.1169,0.1158,0.1159,0.1159,0.1159,0.13,0.1304,0,0,0,0,0,0,0.1353,0.1336,0.1248,0.1244,0.1291,0.1239,0.1228,0.1204,0.118,0.1176,0.1172,0.117,0.1157,0.1157,0.1158,0.128,0.1159,0.1159,0.1159,0.1297,0.1301,0.1305,0,0,0,0,0,0,0.1355,0.1345,0.1251,0.1292,0.128,0.1237,0.1211,0.1203,0.1197,0.1174,0.1171,0.1176,0.1156,0.1157,0.1174,0.1275,0.1159,0.116,0.1293,0.1298,0.1303,0.1454,0,0,0,0,0,0,0.1359,0.1346,0.1341,0.1292,0.1278,0.1252,0.1211,0.1202,0.1195,0.1191,0.1176,0.1175,0.1156,0.1173,0.1174,0.1274,0.116,0.1289,0.1295,0.1301,0.1445,0.1464,0.148,0,0,0,0,0,0.1363,0.1366,0.1341,0.1331,0.1269,0.1254,0.1247,0.1214,0.1196,0.1205,0.1188,0.1176,0.1217,0.1174,0.1176,0.1279,0.1286,0.1294,0.1301,0.1437,0.146,0.1479,0,0,0,0,0,0,0.1429,0.1359,0.1331,0.1315,0.1293,0.1246,0.1254,0.1227,0.1217,0.1219,0.119,0.1189,0.1271,0.1235,0.1189,0.134,0.1262,0.1271,0.1366,0.1387,0.1404,0.1519,0.1161,0,0,0,0,0,0.1437,0.1414,0.136,0.1354,0.1344,0.13,0.1292,0.127,0.125,0.1244,0.1229,0.124,0.1303,0.1305,0.1341,0.1382,0.1437,0.1459,0.1477,0.1492,0.1588,0.1739,0.1781,0.133,0.133,0.133,0,0,0.1469,0.1424,0.1416,0.1367,0.1345,0.1355,0.1295,0.1294,0.1331,0.1251,0.1295,0.131,0.1334,0.1412,0.1445,0.1387,0.1636,0.1502,0.1515,0.1605,0.1752,0.1797,0.1837,0.1335,0.1334,0.1334,0,0,0.1532,0.1474,0.1484,0.1462,0.1431,0.1407,0.1413,0.1372,0.1387,0.1408,0.1414,0.1498,0.1485,0.158,0.1617,0.1754,0.1746,0.1731,0.1889,0.2033,0.2073,0.2109,0.2184,0.2226,0.1712,0.1713,0.1713,0,0.1584,0.1567,0.1495,0.1501,0.1511,0.1439,0.1483,0.1485,0.1461,0.1523,0.1444,0.1599,0.161,0.1811,0.1862,0.1812,0.1842,0.1799,0.2062,0.2099,0.2133,0.2202,0.2246,0.1721,0.172,0.1719,0.1718,0,0.1646,0.1641,0.1651,0.1631,0.1636,0.1655,0.1646,0.167,0.166,0.1683,0.1849,0.1866,0.1974,0.1989,0.1965,0.223,0.2153,0.2086,0.2014,0.2189,0.2247,0.2291,0.1733,0.173,0.1727,0.1725,0,0,0.1759,0.1709,0.1716,0.1727,0.1707,0.1717,0.1805,0.1888,0.1975,0.1993,0.2146,0.2294,0.2312,0.2365,0.2363,0.2485,0.2731,0.2385,0.2388,0.2474,0.2998,0.2974,0.3017,0.2678,0.2688,0.2696,0.2922,0,0.1848,0.1879,0.1845,0.1912,0.1936,0.1919,0.2001,0.2072,0.2121,0.223,0.2353,0.2472,0.2447,0.2491,0.2642,0.2705,0.2861,0.2674,0.281,0.2815,0.2786,0.3076,0.3023,0.3226,0.2964,0.2971,0.2976,0,0.1939,0.194,0.2014,0.2045,0.2061,0.2098,0.2229,0.2291,0.2449,0.2494,0.2666,0.2702,0.2946,0.2846,0.3155,0.3013,0.3079,0.3112,0.3118,0.3105,0.288,0.302,0.3314,0.3178,0.3043,0.3038,0.3033,0,0.2045,0.2073,0.2136,0.2139,0.2161,0.2232,0.2267,0.2398,0.2461,0.2672,0.2725,0.2992,0.307,0.3264,0.3336,0.3257,0.3611,0.3488,0.3556,0.3547,0.3552,0.3531,0.3768,0.3794,0.3793,0.3793,0.3792,0,0.2146,0.2188,0.218,0.2201,0.2281,0.2305,0.2421,0.2496,0.2622,0.2715,0.2867,0.2978,0.3175,0.3342,0.3446,0.3652,0.3716,0.3717,0.3676,0.359,0.3571,0.3484,0.3377,0.3801,0.3799,0.3798,0.3796,0,0.2219,0.2225,0.2271,0.2307,0.2317,0.2372,0.241,0.248,0.2615,0.274,0.2801,0.2998,0.3238,0.3418,0.3688,0.3755,0.3871,0.4003,0.3859,0.3803,0.3747,0.3648,0.3779,0.3672,0.4181,0.4183,0.4185,0,0.2241,0.2276,0.2303,0.23,0.2302,0.2356,0.2369,0.2467,0.2527,0.2736,0.2792,0.3046,0.3207,0.3603,0.3828,0.4098,0.393,0.4159,0.4077,0.3873,0.3731,0.351,0.3392,0.4101,0.4102,0.4102,0.4103,0,0.2252,0.2269,0.2278,0.2274,0.2281,0.2283,0.2323,0.2357,0.2484,0.2604,0.277,0.2921,0.3317,0.3583,0.3924,0.4082,0.3969,0.418,0.4053,0.384,0.3542,0.3367,0.374,0.4108,0.4108,0.4107,0.4107,0.4107,0.222,0.2216,0.2214,0.2206,0.22,0.2185,0.2175,0.2243,0.2323,0.2481,0.2672,0.29,0.3324,0.3827,0.3942,0.4126,0.4017,0.4086,0.4023,0.3847,0.3667,0.4042,0.4292,0.4292,0.4293,0.4293,0.4293,0,0.2131,0.2128,0.2122,0.2092,0.2041,0.2079,0.2099,0.2096,0.2157,0.2386,0.2552,0.3001,0.3331,0.3672,0.4035,0.3976,0.3807,0.3879,0.3574,0.3495,0.3948,0.3865,0.3931,0.3931,0.3931,0.3931,0.3932,0.3932,0.2078,0.2036,0.2034,0.1923,0.1896,0.1819,0.1813,0.1863,0.2005,0.224,0.2491,0.2746,0.3204,0.3669,0.3795,0.376,0.3448,0.3355,0.3244,0.3557,0.3569,0.358,0.3481,0.3465,0.3465,0.2695,0.2689,0.2685]},{"header":{"parameterUnit":"m.s-1","parameterCategory":2,"la1":30.2991,"la2":30.254,"lo1":-89.0895,"lo2":-89.0444,"dy":0.0017,"dx":0.0017,"nx":28,"ny":28,"refTime":"2023-10-21T21:00:00:Z","depth":"0","parameterNumber":3,"parameterNumberName":"V-component_of_CURRENTS"},"data":[0,0,0,0,0,0,0,0,0,0,0,0,0,0,0,0,0,0,0,0,0,0,0,0,0,0,0,0,0,0,0,0,0,0,0,0,0,0,0,0,0,0,0,0,0,0,0,0,0,0,0,0,0,0,0,0,0,0,0.0201,0.0201,0,0.0176,0.0176,0.0176,0.0187,0.0187,0.0188,0.0188,0.0214,0.0214,0.0214,0,0,0,0,0,0,0,0,0,0,0,0,0,0.0289,0.0287,0.0201,0.0201,0.02,0.0176,0.0176,0.0176,0.0187,0.0187,0.0188,0.0188,0.0213,0.0214,0.0214,0,0,0,0,0,0,0,0,0,0,0,0,0,0.0258,0.0287,0.0202,0.0201,0.0201,0.0176,0.0176,0.0176,0.0187,0.0187,0.0188,0.0188,0.0213,0.0214,0.0214,0.0205,0,0,0.0216,0.0216,0,0,0,0,0,0,0,0,0.026,0.0255,0.0202,0.0201,0.0201,0.0183,0.0216,0.0187,0.0186,0.0195,0.0188,0.0189,0.0206,0.0207,0.0204,0.0206,0.0207,0.0216,0.0216,0.0216,0.0216,0,0,0,0,0,0,0,0.0262,0.0256,0.0194,0.0201,0.02,0.0212,0.0208,0.0211,0.02,0.0194,0.0194,0.0187,0.0207,0.0203,0.0204,0.0207,0.0216,0.0216,0.0216,0.0216,0.0319,0.0322,0,0,0,0,0,0,0.0258,0.0258,0.0194,0.0193,0.023,0.021,0.0206,0.019,0.0199,0.02,0.0187,0.0188,0.0202,0.0204,0.0205,0.0303,0.0216,0.0217,0.0217,0.0317,0.032,0.0323,0,0,0,0,0,0,0.0259,0.0252,0.0195,0.0224,0.0217,0.0207,0.019,0.0189,0.0186,0.0192,0.0195,0.0184,0.0203,0.0205,0.024,0.03,0.0217,0.0217,0.0314,0.0318,0.0321,0.0429,0,0,0,0,0,0,0.0262,0.0252,0.0245,0.0223,0.0215,0.0193,0.0189,0.0188,0.018,0.0181,0.0191,0.0194,0.0203,0.024,0.0241,0.0299,0.0217,0.0311,0.0316,0.032,0.0423,0.0436,0.0448,0,0,0,0,0,0.0265,0.0251,0.0244,0.0237,0.0203,0.0193,0.0191,0.0188,0.0179,0.0186,0.0209,0.0194,0.0271,0.0242,0.0242,0.0303,0.0309,0.0314,0.032,0.0417,0.0434,0.0448,0,0,0,0,0,0,0.0281,0.0249,0.0242,0.0218,0.0212,0.0195,0.0194,0.0185,0.0202,0.0212,0.0213,0.0218,0.0281,0.0267,0.0235,0.0347,0.0292,0.0297,0.0366,0.0381,0.0393,0.0452,0.0218,0,0,0,0,0,0.0279,0.0262,0.0241,0.0223,0.022,0.0205,0.0199,0.0201,0.0208,0.0214,0.022,0.0247,0.0302,0.0319,0.0349,0.039,0.0369,0.0434,0.0446,0.0457,0.0507,0.0522,0.0541,0.0341,0.0341,0.0341,0,0,0.0281,0.0259,0.025,0.0226,0.0218,0.0251,0.0204,0.0204,0.0256,0.0216,0.0277,0.0285,0.0323,0.0396,0.0422,0.0392,0.0492,0.0464,0.0473,0.0519,0.053,0.0549,0.0566,0.0345,0.0344,0.0343,0,0,0.0291,0.0256,0.0261,0.0267,0.0262,0.027,0.027,0.0261,0.0282,0.0329,0.0342,0.0394,0.0423,0.0492,0.0528,0.0623,0.0559,0.0611,0.0723,0.0736,0.0753,0.0768,0.0714,0.0724,0.0616,0.0616,0.0616,0,0.0299,0.0308,0.0263,0.0288,0.0321,0.0286,0.0343,0.0358,0.0368,0.042,0.037,0.049,0.0496,0.0647,0.0686,0.0659,0.0618,0.066,0.0753,0.0768,0.0781,0.0723,0.0732,0.0622,0.0621,0.0621,0.062,0,0.0335,0.0355,0.0359,0.0396,0.0423,0.0455,0.0485,0.0519,0.053,0.0562,0.0672,0.0678,0.0764,0.0763,0.0758,0.0877,0.0798,0.0764,0.0713,0.0808,0.0739,0.0747,0.063,0.0628,0.0626,0.0625,0,0,0.0335,0.038,0.0387,0.0453,0.0495,0.0533,0.0626,0.0725,0.082,0.0819,0.0947,0.102,0.1006,0.1048,0.103,0.1039,0.1066,0.0943,0.0941,0.0888,0.1036,0.097,0.097,0.1029,0.1032,0.1035,0.0931,0,0.0394,0.0476,0.0492,0.0622,0.0688,0.0725,0.0827,0.0915,0.0969,0.107,0.1103,0.1197,0.1119,0.1156,0.1165,0.1114,0.1099,0.1095,0.0957,0.0953,0.0883,0.0984,0.0983,0.0892,0.0937,0.0938,0.0939,0,0.0449,0.0506,0.0627,0.0781,0.0816,0.0897,0.1083,0.1169,0.13,0.1338,0.1426,0.1426,0.15,0.138,0.1347,0.1335,0.1212,0.113,0.1123,0.1048,0.0906,0.0817,0.0903,0.0662,0.095,0.0949,0.0948,0,0.0505,0.0623,0.0735,0.078,0.0926,0.102,0.1115,0.126,0.1364,0.1506,0.157,0.1643,0.1656,0.1574,0.1418,0.1378,0.1323,0.124,0.1059,0.1047,0.1023,0.1007,0.0875,0.1205,0.1205,0.1205,0.1205,0,0.0583,0.0683,0.0772,0.0838,0.1013,0.1096,0.1292,0.1388,0.1539,0.167,0.1703,0.1782,0.1698,0.165,0.1494,0.1316,0.1379,0.112,0.1052,0.1052,0.1041,0.0809,0.0675,0.1201,0.1202,0.1203,0.1203,0,0.0643,0.0689,0.083,0.098,0.1038,0.1167,0.1371,0.1508,0.1621,0.1784,0.1828,0.1889,0.1828,0.1711,0.1561,0.1393,0.1106,0.1142,0.1121,0.1055,0.0663,0.0536,0.0421,0.0282,0.0943,0.0941,0.094,0,0.0686,0.0749,0.0905,0.0985,0.1059,0.124,0.1369,0.1534,0.1667,0.1833,0.1911,0.1916,0.1931,0.1709,0.1467,0.1223,0.1016,0.1004,0.0958,0.0683,0.0491,0.0449,0.0337,0.0928,0.0926,0.0925,0.0924,0,0.0763,0.0796,0.0896,0.1043,0.118,0.1357,0.1541,0.1642,0.1821,0.1933,0.2042,0.2068,0.189,0.168,0.1364,0.1185,0.0847,0.0967,0.0722,0.0528,0.0443,0.0261,0.089,0.0914,0.0915,0.0916,0.0916,0.0917,0.0796,0.0868,0.0962,0.1118,0.1266,0.1441,0.1569,0.1733,0.1908,0.207,0.2102,0.216,0.1892,0.1491,0.1187,0.0678,0.0694,0.0502,0.0379,0.037,0.0236,0.0817,0.0744,0.0744,0.0744,0.0744,0.0745,0,0.0827,0.0902,0.1035,0.1208,0.1356,0.1447,0.1663,0.1769,0.1918,0.2092,0.2186,0.2142,0.1711,0.1296,0.0643,0.0186,0.0061,-0.0045,-0.0107,-0.0192,0.0359,0.0356,0.0152,0.0152,0.0152,0.0152,0.0153,0.0153,0.0841,0.0946,0.1017,0.1237,0.1364,0.1556,0.1662,0.1797,0.1944,0.2121,0.2225,0.2319,0.2072,0.0833,-0.0097,-0.0316,-0.0656,-0.0674,-0.0881,-0.0529,-0.0487,-0.0447,-0.048,-0.0857,-0.0858,-0.135,-0.1356,-0.136]}],[{"header":{"parameterUnit":"m.s-1","parameterCategory":2,"la1":30.2991,"la2":30.254,"lo1":-89.0895,"lo2":-89.0444,"dy":0.0017,"dx":0.0017,"nx":28,"ny":28,"refTime":"2023-10-21T21:00:00:Z","depth":"2","parameterNumber":2,"parameterNumberName":"U-component_of_CURRENTS"},"data":[0,0,0,0,0,0,0,0,0,0,0,0,0,0,0,0,0,0,0,0,0,0,0,0,0,0,0,0,0,0,0,0,0,0,0,0,0,0,0,0,0,0,0,0,0,0,0,0,0,0,0,0,0,0,0,0,0,0,0.2194,0.2195,0,0.2243,0.2244,0.2244,0.2259,0.2259,0.2259,0.2259,0.2272,0.2273,0.2273,0,0,0,0,0,0,0,0,0,0,0,0,0,0.2136,0.2136,0.2194,0.2195,0.2195,0.2243,0.2244,0.2244,0.2259,0.2259,0.2259,0.2259,0.2272,0.2272,0.2273,0,0,0,0,0,0,0,0,0,0,0,0,0,0.2168,0.2137,0.2194,0.2211,0.2213,0.2243,0.2244,0.2244,0.2259,0.2259,0.2259,0.2259,0.2272,0.2272,0.2273,0.2276,0,0,0.2274,0.2275,0,0,0,0,0,0,0,0,0.2166,0.217,0.2207,0.221,0.2212,0.2247,0.2228,0.2254,0.2259,0.2238,0.2259,0.2259,0.2262,0.2264,0.2269,0.2276,0.2277,0.2275,0.2275,0.2275,0.2275,0,0,0,0,0,0,0,0.2164,0.2168,0.221,0.2208,0.2211,0.2225,0.2228,0.2233,0.2247,0.224,0.2242,0.2252,0.2263,0.2269,0.227,0.2277,0.2275,0.2275,0.2275,0.2275,0.2295,0.2295,0,0,0,0,0,0,0.2162,0.2165,0.2209,0.2212,0.2192,0.2226,0.223,0.2234,0.2248,0.2251,0.2252,0.2253,0.2268,0.2269,0.227,0.2288,0.2275,0.2276,0.2276,0.2295,0.2295,0.2295,0,0,0,0,0,0,0.2161,0.2165,0.2207,0.2193,0.2199,0.2227,0.2231,0.2235,0.2244,0.2258,0.226,0.2258,0.2268,0.2269,0.2278,0.2288,0.2276,0.2276,0.2295,0.2295,0.2295,0.2315,0,0,0,0,0,0,0.2159,0.2164,0.217,0.2192,0.22,0.2224,0.2231,0.2236,0.2252,0.2253,0.2263,0.2265,0.2268,0.2278,0.2279,0.2289,0.2277,0.2294,0.2295,0.2295,0.2314,0.2316,0.2318,0,0,0,0,0,0.2156,0.2152,0.2169,0.2175,0.2205,0.2224,0.2229,0.2247,0.2252,0.2255,0.2265,0.2264,0.2281,0.2278,0.228,0.229,0.2294,0.2295,0.2295,0.2313,0.2316,0.2318,0,0,0,0,0,0,0.2122,0.2155,0.2173,0.2179,0.2204,0.2228,0.2234,0.2248,0.2259,0.2261,0.2268,0.227,0.2279,0.2281,0.2277,0.2296,0.2287,0.2288,0.2301,0.2303,0.2304,0.2315,0.2277,0,0,0,0,0,0.2121,0.2132,0.2165,0.2171,0.2183,0.2211,0.2223,0.2239,0.2253,0.2258,0.2267,0.2276,0.2282,0.2289,0.2292,0.2305,0.234,0.2311,0.2313,0.2315,0.2324,0.2375,0.2383,0.2297,0.2297,0.2297,0,0,0.2109,0.2131,0.2136,0.2167,0.2187,0.2207,0.2217,0.2235,0.2253,0.2257,0.2275,0.2279,0.2285,0.2298,0.2303,0.2302,0.2364,0.2315,0.2317,0.2326,0.2376,0.2385,0.2392,0.2297,0.2297,0.2297,0,0,0.2089,0.2111,0.2116,0.2141,0.2179,0.2202,0.2208,0.2238,0.225,0.227,0.2277,0.2292,0.23,0.2314,0.2319,0.2333,0.2366,0.2329,0.2354,0.2403,0.2411,0.2418,0.2504,0.2518,0.2336,0.2336,0.2336,0,0.2076,0.2094,0.212,0.2137,0.2163,0.2199,0.2217,0.2235,0.2265,0.2283,0.2276,0.2309,0.231,0.234,0.2344,0.2339,0.2384,0.2346,0.2407,0.2415,0.2422,0.2508,0.2524,0.2337,0.2336,0.2336,0.2336,0,0.2064,0.2089,0.2093,0.2136,0.2162,0.2183,0.2222,0.2246,0.2268,0.2294,0.2324,0.2331,0.2359,0.2355,0.2353,0.2402,0.2426,0.2401,0.2406,0.2433,0.2521,0.2537,0.2338,0.2338,0.2337,0.2337,0,0,0.2003,0.2073,0.2077,0.211,0.2168,0.2189,0.2225,0.2273,0.2311,0.2329,0.2379,0.2379,0.2399,0.2406,0.241,0.2445,0.2539,0.2448,0.245,0.2541,0.2685,0.2567,0.2574,0.2526,0.2528,0.253,0.2738,0,0.1991,0.2032,0.207,0.2116,0.2145,0.2201,0.224,0.229,0.2331,0.2387,0.2405,0.2451,0.2414,0.2445,0.2469,0.2521,0.2578,0.2487,0.2639,0.2644,0.2541,0.2586,0.2354,0.2506,0.2754,0.2757,0.2759,0,0.1963,0.2006,0.205,0.2136,0.2153,0.2188,0.2275,0.232,0.2404,0.2435,0.2481,0.2513,0.2576,0.2538,0.2647,0.2594,0.2647,0.268,0.2688,0.2579,0.2554,0.2513,0.2527,0.2787,0.2784,0.2782,0.278,0,0.1915,0.1987,0.2031,0.2058,0.2155,0.219,0.2249,0.2335,0.2382,0.249,0.254,0.2605,0.2658,0.2717,0.278,0.2734,0.291,0.2857,0.281,0.2806,0.2637,0.261,0.2949,0.2949,0.2948,0.2948,0.2947,0,0.1887,0.192,0.2017,0.2042,0.2101,0.2183,0.2251,0.2318,0.2422,0.2495,0.2571,0.2632,0.2702,0.28,0.2843,0.2884,0.2971,0.2833,0.2843,0.2637,0.261,0.2859,0.2845,0.2956,0.2954,0.2952,0.2951,0,0.1829,0.189,0.1944,0.2049,0.2079,0.2129,0.2239,0.2304,0.2407,0.2512,0.2558,0.268,0.2818,0.2905,0.3033,0.2955,0.3022,0.3024,0.2792,0.2766,0.2879,0.2864,0.2986,0.2983,0.2981,0.2979,0.2977,0,0.1809,0.1832,0.1931,0.1974,0.2023,0.2102,0.2169,0.2278,0.2355,0.2531,0.2591,0.2756,0.2846,0.2986,0.2938,0.3011,0.308,0.2782,0.2607,0.2881,0.288,0.2869,0.2858,0.2433,0.2427,0.2423,0.2419,0,0.1776,0.1809,0.186,0.1943,0.2011,0.2076,0.2182,0.222,0.2378,0.2468,0.2619,0.271,0.2826,0.2746,0.2784,0.2774,0.2734,0.2678,0.3063,0.2421,0.2365,0.2362,0.2369,0.2376,0.238,0.2383,0.2386,0.2387,0.1753,0.1776,0.185,0.1918,0.1994,0.2061,0.2086,0.2199,0.2289,0.2355,0.2489,0.2504,0.252,0.2427,0.241,0.2371,0.2529,0.2376,0.239,0.2409,0.2268,0.2206,0.2166,0.2169,0.2172,0.2174,0.2176,0,0.1735,0.1775,0.1833,0.1906,0.1958,0.2023,0.2109,0.2105,0.2176,0.2178,0.2217,0.1994,0.196,0.2049,0.1909,0.1877,0.1853,0.1816,0.1769,0.1813,0.1852,0.168,0.1425,0.1423,0.142,0.1418,0,0,0.1734,0.177,0.1792,0.1853,0.1914,0.1956,0.1986,0.197,0.1952,0.1797,0.171,0.1728,0.1899,0.158,0.1571,0.1489,0.1631,0.143,0.2031,0.2016,0.2052,0.2174,0.1958,0,0,0,0,0]},{"header":{"parameterUnit":"m.s-1","parameterCategory":2,"la1":30.2991,"la2":30.254,"lo1":-89.0895,"lo2":-89.0444,"dy":0.0017,"dx":0.0017,"nx":28,"ny":28,"refTime":"2023-10-21T21:00:00:Z","depth":"2","parameterNumber":3,"parameterNumberName":"V-component_of_CURRENTS"},"data":[0,0,0,0,0,0,0,0,0,0,0,0,0,0,0,0,0,0,0,0,0,0,0,0,0,0,0,0,0,0,0,0,0,0,0,0,0,0,0,0,0,0,0,0,0,0,0,0,0,0,0,0,0,0,0,0,0,0,-0.0713,-0.0714,0,-0.0802,-0.0803,-0.0804,-0.0844,-0.0844,-0.0844,-0.0844,-0.0879,-0.088,-0.0881,0,0,0,0,0,0,0,0,0,0,0,0,0,-0.0602,-0.0604,-0.0712,-0.0714,-0.0715,-0.0801,-0.0803,-0.0804,-0.0844,-0.0844,-0.0844,-0.0844,-0.0878,-0.088,-0.0881,0,0,0,0,0,0,0,0,0,0,0,0,0,-0.0666,-0.0604,-0.0712,-0.0746,-0.075,-0.0801,-0.0803,-0.0804,-0.0844,-0.0844,-0.0844,-0.0844,-0.0878,-0.0879,-0.0881,-0.0891,0,0,-0.0885,-0.0886,0,0,0,0,0,0,0,0,-0.0662,-0.067,-0.074,-0.0744,-0.0748,-0.0812,-0.0777,-0.0831,-0.0844,-0.0808,-0.0844,-0.0844,-0.0852,-0.0855,-0.0872,-0.0892,-0.0894,-0.0885,-0.0886,-0.0887,-0.0887,0,0,0,0,0,0,0,-0.0658,-0.0666,-0.0747,-0.0741,-0.0746,-0.0765,-0.0774,-0.0787,-0.0827,-0.0811,-0.0814,-0.0825,-0.0854,-0.0871,-0.0873,-0.0894,-0.0885,-0.0887,-0.0887,-0.0888,-0.0924,-0.0924,0,0,0,0,0,0,-0.0647,-0.0662,-0.0744,-0.075,-0.0705,-0.0767,-0.0777,-0.0791,-0.0829,-0.0835,-0.0825,-0.0827,-0.0868,-0.0871,-0.0874,-0.0876,-0.0887,-0.0888,-0.0889,-0.0924,-0.0924,-0.0924,0,0,0,0,0,0,-0.0644,-0.0654,-0.0741,-0.0708,-0.0721,-0.0769,-0.0785,-0.0793,-0.0811,-0.084,-0.0845,-0.0834,-0.0868,-0.0872,-0.089,-0.0878,-0.0889,-0.089,-0.0924,-0.0924,-0.0924,-0.0886,0,0,0,0,0,0,-0.0641,-0.0652,-0.0659,-0.0708,-0.0722,-0.0768,-0.0785,-0.0795,-0.0818,-0.0821,-0.0849,-0.0853,-0.0869,-0.0888,-0.0892,-0.088,-0.0891,-0.0924,-0.0924,-0.0924,-0.0887,-0.0885,-0.0883,0,0,0,0,0,-0.0637,-0.0643,-0.0658,-0.0668,-0.073,-0.0768,-0.0777,-0.081,-0.0818,-0.0825,-0.0848,-0.0852,-0.0892,-0.089,-0.0894,-0.0882,-0.0923,-0.0924,-0.0924,-0.0888,-0.0885,-0.0883,0,0,0,0,0,0,-0.0595,-0.065,-0.0667,-0.0689,-0.0724,-0.0775,-0.0786,-0.0808,-0.0833,-0.0833,-0.0858,-0.0863,-0.0875,-0.0887,-0.0884,-0.0894,-0.0906,-0.0907,-0.0878,-0.0875,-0.0873,-0.0843,-0.0892,0,0,0,0,0,-0.059,-0.0611,-0.0662,-0.0678,-0.0695,-0.0739,-0.0759,-0.0781,-0.0811,-0.0823,-0.0846,-0.0865,-0.088,-0.0884,-0.0903,-0.0908,-0.0905,-0.0903,-0.0901,-0.0898,-0.0878,-0.0882,-0.0877,-0.0925,-0.0925,-0.0925,0,0,-0.0578,-0.061,-0.0622,-0.067,-0.07,-0.072,-0.0751,-0.0777,-0.0786,-0.0821,-0.0837,-0.0861,-0.0882,-0.0891,-0.0896,-0.0897,-0.0884,-0.0899,-0.0897,-0.0877,-0.0881,-0.0876,-0.0872,-0.0925,-0.0925,-0.0925,0,0,-0.0562,-0.0593,-0.0606,-0.0631,-0.0674,-0.0703,-0.0708,-0.0757,-0.0773,-0.0796,-0.082,-0.0834,-0.0865,-0.0873,-0.088,-0.0876,-0.0878,-0.0885,-0.0841,-0.0846,-0.0841,-0.0837,-0.0822,-0.0817,-0.0877,-0.0877,-0.0877,0,-0.0545,-0.0567,-0.0613,-0.0627,-0.0641,-0.0691,-0.0697,-0.0722,-0.0769,-0.0768,-0.0794,-0.0826,-0.0851,-0.0843,-0.0846,-0.0868,-0.0866,-0.0848,-0.0841,-0.0837,-0.0834,-0.0819,-0.0814,-0.0875,-0.0875,-0.0876,-0.0876,0,-0.054,-0.0553,-0.056,-0.0595,-0.0616,-0.0628,-0.0669,-0.0684,-0.0709,-0.0728,-0.0735,-0.0777,-0.0787,-0.0804,-0.0825,-0.0809,-0.0813,-0.0842,-0.0842,-0.0826,-0.0813,-0.0808,-0.0873,-0.0873,-0.0874,-0.0874,0,0,-0.0504,-0.0549,-0.0548,-0.0546,-0.0595,-0.0604,-0.0619,-0.0635,-0.0618,-0.0668,-0.0646,-0.0691,-0.0707,-0.0716,-0.0745,-0.075,-0.0735,-0.078,-0.0781,-0.0754,-0.0727,-0.0717,-0.0711,-0.0765,-0.0764,-0.0763,-0.0724,0,-0.0481,-0.0488,-0.0522,-0.0512,-0.0514,-0.0553,-0.0552,-0.0568,-0.0588,-0.0581,-0.0615,-0.0612,-0.0675,-0.0671,-0.069,-0.0723,-0.0722,-0.0742,-0.0755,-0.0754,-0.0739,-0.0705,-0.0695,-0.0658,-0.072,-0.0719,-0.0718,0,-0.0456,-0.0464,-0.0457,-0.0452,-0.0454,-0.0456,-0.0445,-0.0452,-0.0459,-0.0464,-0.0476,-0.0509,-0.052,-0.058,-0.0617,-0.0627,-0.0667,-0.0697,-0.0697,-0.0693,-0.0735,-0.0687,-0.0647,-0.0711,-0.0712,-0.0712,-0.0713,0,-0.0389,-0.0404,-0.039,-0.0394,-0.041,-0.04,-0.0405,-0.0412,-0.0387,-0.0385,-0.035,-0.0398,-0.0392,-0.0463,-0.0535,-0.0576,-0.0564,-0.0634,-0.0656,-0.0656,-0.0649,-0.0649,-0.0648,-0.0648,-0.0648,-0.0648,-0.0648,0,-0.0338,-0.0318,-0.0355,-0.0342,-0.03,-0.0337,-0.0286,-0.029,-0.0274,-0.0203,-0.0279,-0.0225,-0.0362,-0.0381,-0.0479,-0.0531,-0.0521,-0.0625,-0.064,-0.0636,-0.0635,-0.069,-0.0695,-0.0647,-0.0647,-0.0647,-0.0648,0,-0.025,-0.0285,-0.0257,-0.027,-0.0268,-0.0233,-0.0206,-0.0157,-0.0155,-0.0064,-0.0051,-0.0082,-0.0098,-0.0215,-0.0307,-0.043,-0.0501,-0.052,-0.0494,-0.0507,-0.061,-0.0614,-0.056,-0.0559,-0.0559,-0.0558,-0.0558,0,-0.0202,-0.0186,-0.0187,-0.016,-0.0162,-0.0126,-0.0085,-0.0091,-0.003,0.0045,0.0113,0.011,0.0159,0.0025,-0.02,-0.0349,-0.0396,-0.0458,-0.0551,-0.0577,-0.0598,-0.0603,-0.0608,-0.0526,-0.0525,-0.0524,-0.0524,0,-0.0099,-0.0107,-0.0083,-0.0038,-0.0001,0.0055,0.0108,0.0173,0.0207,0.0301,0.0425,0.0467,0.0323,0.0152,-0.0089,-0.0208,-0.0448,-0.0452,-0.0465,-0.0553,-0.0543,-0.0565,-0.0571,-0.0519,-0.0519,-0.052,-0.052,-0.052,-0.0008,0.0031,0.0051,0.0104,0.0155,0.0245,0.0319,0.0411,0.0542,0.0685,0.0661,0.0716,0.0446,0.0147,-0.0069,-0.0344,-0.0367,-0.0493,-0.0496,-0.0499,-0.0505,-0.0495,-0.0461,-0.0462,-0.0462,-0.0462,-0.0462,0,0.0105,0.0134,0.0194,0.0258,0.0347,0.0333,0.0463,0.0574,0.0773,0.0845,0.0944,0.0724,0.0521,0.0239,-0.0179,-0.0421,-0.0454,-0.0473,-0.0492,-0.0495,-0.0498,-0.0507,-0.0463,-0.0463,-0.0463,-0.0464,0,0,0.0167,0.0244,0.0263,0.0414,0.0467,0.0592,0.0675,0.0862,0.095,0.1065,0.1035,0.0958,0.0586,0.0283,-0.0038,-0.0254,-0.0308,-0.0278,-0.0257,-0.0245,-0.0245,-0.0495,-0.051,0,0,0,0,0]}],[{"header":{"parameterUnit":"m.s-1","parameterCategory":2,"la1":30.2991,"la2":30.254,"lo1":-89.0895,"lo2":-89.0444,"dy":0.0017,"dx":0.0017,"nx":28,"ny":28,"refTime":"2023-10-21T21:00:00:Z","depth":"4","parameterNumber":2,"parameterNumberName":"U-component_of_CURRENTS"},"data":[0,0,0,0,0,0,0,0,0,0,0,0,0,0,0,0,0,0,0,0,0,0,0,0,0,0,0,0,0,0,0,0,0,0,0,0,0,0,0,0,0,0,0,0,0,0,0,0,0,0,0,0,0,0,0,0,0,0,0.0643,0.0643,0,0.0688,0.0689,0.069,0.0818,0.082,0.0822,0.0824,0.0898,0.0898,0.0897,0,0,0,0,0,0,0,0,0,0,0,0,0,0.0621,0.0621,0.0643,0.0643,0.0643,0.0688,0.0689,0.069,0.0817,0.082,0.0823,0.0825,0.0898,0.0898,0.0897,0,0,0,0,0,0,0,0,0,0,0,0,0,0.065,0.0622,0.0643,0.0708,0.0713,0.0688,0.0689,0.0691,0.0817,0.082,0.0824,0.0827,0.0898,0.0898,0.0897,0.0829,0,0,0.0897,0.0897,0,0,0,0,0,0,0,0,0.0648,0.0652,0.0698,0.0703,0.0709,0.0746,0.0708,0.0736,0.0816,0.0784,0.0824,0.0828,0.0843,0.0848,0.0857,0.0833,0.0836,0.0897,0.0897,0.0897,0.0897,0,0,0,0,0,0,0,0.0646,0.065,0.0667,0.0698,0.0704,0.0718,0.0727,0.0714,0.0799,0.0787,0.0795,0.0789,0.0848,0.0857,0.0859,0.0837,0.0897,0.0897,0.0897,0.0896,0.0998,0.1,0,0,0,0,0,0,0.0627,0.0648,0.0665,0.0668,0.068,0.0715,0.0726,0.0735,0.0799,0.081,0.0786,0.0795,0.0855,0.0859,0.0862,0.0962,0.0897,0.0896,0.0896,0.0995,0.0998,0.1001,0,0,0,0,0,0,0.0627,0.0629,0.0663,0.0653,0.0658,0.0712,0.0722,0.0734,0.0788,0.0797,0.0811,0.0832,0.0858,0.0863,0.0912,0.096,0.0896,0.0896,0.0992,0.0996,0.1,0.1048,0,0,0,0,0,0,0.0627,0.0629,0.0651,0.0652,0.0658,0.0688,0.0718,0.0733,0.0773,0.0787,0.0838,0.0847,0.0861,0.0912,0.0911,0.0958,0.0896,0.0988,0.0993,0.0998,0.1043,0.1053,0.1062,0,0,0,0,0,0.0626,0.0621,0.0652,0.0655,0.068,0.0688,0.0695,0.0746,0.0773,0.0806,0.0851,0.0848,0.0947,0.0913,0.0912,0.096,0.0985,0.0992,0.0998,0.1039,0.1051,0.1062,0,0,0,0,0,0,0.0626,0.0633,0.0667,0.067,0.0701,0.0709,0.0728,0.0757,0.0814,0.084,0.0858,0.0869,0.0937,0.0938,0.09,0.1012,0.0974,0.098,0.1006,0.1018,0.1027,0.1024,0.0896,0,0,0,0,0,0.0631,0.0621,0.0656,0.0654,0.0679,0.0712,0.0726,0.0766,0.0797,0.0829,0.0864,0.0911,0.095,0.0977,0.1007,0.104,0.1022,0.1082,0.1092,0.11,0.1101,0.1101,0.1109,0.1022,0.1022,0.1022,0,0,0.062,0.0621,0.0619,0.0652,0.068,0.0713,0.0733,0.0766,0.081,0.082,0.0901,0.0935,0.0966,0.1031,0.1062,0.1044,0.112,0.1108,0.1114,0.1111,0.1108,0.1116,0.1123,0.1026,0.1025,0.1025,0,0,0.0588,0.0615,0.0621,0.0662,0.071,0.0719,0.0737,0.0788,0.0848,0.091,0.0944,0.1,0.106,0.1093,0.1114,0.1184,0.1168,0.1222,0.1267,0.1267,0.1273,0.1277,0.1274,0.1278,0.1231,0.1231,0.1231,0,0.0593,0.061,0.0624,0.0666,0.0698,0.0727,0.0773,0.0814,0.088,0.0925,0.0957,0.106,0.1084,0.1146,0.1202,0.1202,0.1207,0.1213,0.1275,0.1279,0.1283,0.1278,0.1282,0.1234,0.1234,0.1234,0.1233,0,0.06,0.0632,0.0637,0.0693,0.0726,0.0761,0.0824,0.0867,0.0924,0.0982,0.1084,0.1126,0.1191,0.1221,0.124,0.1301,0.1298,0.1278,0.1232,0.1294,0.1286,0.1289,0.1239,0.1238,0.1237,0.1236,0,0,0.0569,0.0632,0.0644,0.0682,0.076,0.0771,0.0834,0.0904,0.0959,0.1049,0.1127,0.1216,0.1262,0.1289,0.1319,0.1336,0.1377,0.1343,0.1342,0.1318,0.1392,0.1331,0.1328,0.1378,0.1378,0.1379,0.1376,0,0.059,0.0642,0.068,0.073,0.0768,0.0821,0.0884,0.0953,0.1021,0.1102,0.117,0.1265,0.1284,0.1339,0.1358,0.1374,0.1389,0.138,0.1355,0.1354,0.1273,0.133,0.1382,0.1378,0.1379,0.1379,0.1379,0,0.0606,0.0637,0.0699,0.0762,0.0795,0.0836,0.0913,0.0989,0.1099,0.1171,0.1251,0.1312,0.1377,0.1379,0.1413,0.1417,0.1422,0.1418,0.1417,0.1342,0.1299,0.1305,0.1384,0.1384,0.1383,0.1383,0.1383,0,0.0558,0.0638,0.0671,0.0709,0.0801,0.0847,0.091,0.1022,0.1095,0.1223,0.1277,0.1359,0.1415,0.1422,0.1446,0.1443,0.1463,0.1434,0.1372,0.1368,0.1396,0.1391,0.1445,0.1445,0.1445,0.1445,0.1445,0,0.0551,0.0581,0.0658,0.0693,0.0764,0.0854,0.0952,0.1027,0.1143,0.1225,0.1331,0.1372,0.1436,0.1459,0.1457,0.143,0.1464,0.1388,0.1366,0.1421,0.1419,0.1398,0.1393,0.1445,0.1445,0.1445,0.1445,0,0.0497,0.0547,0.0593,0.0702,0.0743,0.0812,0.0961,0.1026,0.1155,0.1243,0.1288,0.1392,0.1435,0.1467,0.1481,0.1438,0.1414,0.1396,0.1467,0.1448,0.1314,0.1312,0.1308,0.1306,0.1304,0.1303,0.1302,0,0.047,0.0479,0.0592,0.0631,0.0692,0.0803,0.0884,0.1026,0.1083,0.123,0.1251,0.1346,0.1403,0.1372,0.1413,0.1397,0.1385,0.1363,0.1332,0.1322,0.1302,0.1302,0.1302,0.1299,0.1298,0.1298,0.1297,0,0.0414,0.0454,0.0499,0.0591,0.0666,0.0744,0.0861,0.0886,0.1042,0.1147,0.1201,0.1241,0.1292,0.1317,0.134,0.1317,0.1368,0.1344,0.1347,0.1318,0.1311,0.1292,0.1294,0.1291,0.1292,0.1293,0.1293,0,0.0367,0.0385,0.0446,0.0523,0.061,0.0663,0.0736,0.0812,0.0888,0.1052,0.1058,0.1168,0.1268,0.1274,0.1274,0.1276,0.1248,0.1198,0.1208,0.1215,0.119,0.1168,0.1091,0,0,0,0,0,0.0327,0.0336,0.0379,0.0454,0.0537,0.0595,0.0704,0.0771,0.0906,0.0922,0.0992,0.1042,0.1091,0.1142,0.1123,0.1207,0.1232,0.1179,0.1173,0.1257,0.1264,0.1244,0,0,0,0,0,0,0.0292,0.0325,0.0345,0.0376,0.0422,0.05,0.0567,0.0651,0.0674,0.082,0.0856,0.0975,0.1036,0.109,0.1101,0.1116,0.109,0.1253,0.125,0.1253,0.1259,0.1265,0.1247,0,0,0,0,0]},{"header":{"parameterUnit":"m.s-1","parameterCategory":2,"la1":30.2991,"la2":30.254,"lo1":-89.0895,"lo2":-89.0444,"dy":0.0017,"dx":0.0017,"nx":28,"ny":28,"refTime":"2023-10-21T21:00:00:Z","depth":"4","parameterNumber":3,"parameterNumberName":"V-component_of_CURRENTS"},"data":[0,0,0,0,0,0,0,0,0,0,0,0,0,0,0,0,0,0,0,0,0,0,0,0,0,0,0,0,0,0,0,0,0,0,0,0,0,0,0,0,0,0,0,0,0,0,0,0,0,0,0,0,0,0,0,0,0,0,0.0205,0.0205,0,0.0162,0.0162,0.0161,0.0111,0.0111,0.011,0.011,0.0009,0.0007,0.0005,0,0,0,0,0,0,0,0,0,0,0,0,0,0.014,0.0142,0.0205,0.0205,0.0204,0.0163,0.0162,0.0161,0.0111,0.0111,0.011,0.0109,0.001,0.0007,0.0005,0,0,0,0,0,0,0,0,0,0,0,0,0,0.0138,0.0142,0.0205,0.0177,0.0174,0.0163,0.0162,0.0161,0.0111,0.0111,0.011,0.0109,0.0011,0.0008,0.0004,-0.0001,0,0,-0.0006,-0.0007,0,0,0,0,0,0,0,0,0.0138,0.014,0.0181,0.0179,0.0175,0.0144,0.0102,0.0105,0.0112,0.0132,0.011,0.0109,0.0051,0.0045,0.0035,-0.0006,-0.001,-0.0006,-0.0008,-0.001,-0.0011,0,0,0,0,0,0,0,0.0138,0.0141,0.0185,0.0181,0.0177,0.0131,0.013,0.0102,0.0093,0.013,0.0127,0.0127,0.0049,0.0038,0.0032,-0.0012,-0.0006,-0.0009,-0.0011,-0.0012,-0.0074,-0.0073,0,0,0,0,0,0,0.0156,0.0142,0.0187,0.0184,0.0158,0.0133,0.0132,0.0152,0.0095,0.0086,0.0128,0.0125,0.0044,0.0036,0.0028,0.0012,-0.001,-0.0013,-0.0015,-0.0074,-0.0074,-0.0073,0,0,0,0,0,0,0.0155,0.0161,0.0188,0.0162,0.0163,0.0136,0.0158,0.0152,0.0144,0.0094,0.0084,0.0127,0.0044,0.0033,0.002,0.0008,-0.0014,-0.0017,-0.0074,-0.0074,-0.0073,-0.0017,0,0,0,0,0,0,0.0154,0.0162,0.0179,0.0165,0.0165,0.0186,0.0159,0.0152,0.0147,0.0143,0.009,0.008,0.0042,0.0025,0.0016,0.0003,-0.002,-0.0075,-0.0074,-0.0074,-0.0019,-0.0015,-0.0011,0,0,0,0,0,0.0152,0.0185,0.018,0.0185,0.0192,0.0186,0.0182,0.0157,0.0148,0.0147,0.0123,0.0082,0.0022,0.0024,0.0013,-0.0002,-0.0075,-0.0074,-0.0074,-0.0021,-0.0015,-0.0011,0,0,0,0,0,0,0.0161,0.0183,0.0177,0.0214,0.0201,0.0179,0.0178,0.0166,0.0147,0.0144,0.0097,0.0086,0.0063,0.0032,0.0035,-0.0017,-0.0038,-0.0039,0.0005,0.001,0.0014,0.0007,-0.0023,0,0,0,0,0,0.0175,0.0213,0.0204,0.0234,0.0226,0.0204,0.0199,0.0186,0.0169,0.016,0.0125,0.0089,0.0058,0.0039,0.0005,-0.0013,-0.0052,-0.0032,-0.0028,-0.0024,-0.0036,-0.0091,-0.0093,-0.0071,-0.0071,-0.0071,0,0,0.0183,0.0206,0.0222,0.0239,0.0225,0.022,0.0198,0.0198,0.0196,0.0152,0.0138,0.0105,0.0059,0.0034,0.0019,0.0007,-0.0046,-0.0023,-0.0019,-0.0034,-0.0091,-0.0093,-0.0095,-0.007,-0.007,-0.007,0,0,0.0216,0.0239,0.0266,0.026,0.0256,0.0243,0.0247,0.0226,0.0214,0.0207,0.0169,0.0137,0.0096,0.0054,0.003,0.004,-0.0019,0.0026,0.0037,-0.0015,-0.0017,-0.002,-0.0053,-0.006,0.0026,0.0026,0.0026,0,0.022,0.0262,0.0267,0.0279,0.0276,0.0257,0.0258,0.0249,0.0228,0.0214,0.021,0.0133,0.0101,0.0053,0.0058,0.0047,0.0015,0.0023,-0.001,-0.0014,-0.0018,-0.0051,-0.0059,0.0029,0.0028,0.0028,0.0028,0,0.0259,0.0282,0.0294,0.031,0.0305,0.031,0.0292,0.0283,0.0272,0.0251,0.021,0.0168,0.0114,0.0101,0.0085,0.0035,0.0022,0.0005,-0.0023,-0.0017,-0.0052,-0.0061,0.0033,0.0032,0.0031,0.003,0,0,0.0287,0.0316,0.032,0.0322,0.0322,0.0321,0.0318,0.0299,0.0286,0.0259,0.0226,0.0181,0.0144,0.0115,0.0077,0.0036,-0.0003,0.0014,0.001,-0.0019,-0.0108,-0.0099,-0.0109,-0.0027,-0.0029,-0.003,-0.0114,0,0.0307,0.0345,0.0351,0.0364,0.0366,0.0347,0.0347,0.0329,0.0302,0.0267,0.0213,0.0174,0.0154,0.0126,0.0081,0.0013,-0.0029,0.0021,-0.0112,-0.0116,-0.0109,-0.012,-0.0036,-0.0121,-0.0123,-0.0125,-0.0126,0,0.0329,0.0357,0.0381,0.0388,0.0385,0.0393,0.0372,0.0369,0.0318,0.0293,0.0232,0.0184,0.0115,0.0102,-0.0018,0.0015,-0.0044,-0.0092,-0.0097,-0.0121,-0.0125,-0.0135,-0.0143,-0.0142,-0.0141,-0.0139,-0.0138,0,0.0345,0.0369,0.0396,0.0399,0.0407,0.041,0.0412,0.0377,0.0368,0.0302,0.0276,0.0182,0.0138,0.0044,-0.0051,-0.0039,-0.0183,-0.0181,-0.0231,-0.023,-0.0238,-0.0235,-0.0274,-0.0274,-0.0274,-0.0273,-0.0273,0,0.0361,0.0377,0.041,0.0426,0.0445,0.044,0.0445,0.0423,0.0389,0.0372,0.0294,0.0246,0.0121,0.0024,-0.0061,-0.0175,-0.0195,-0.024,-0.0259,-0.0208,-0.02,-0.0244,-0.0239,-0.0276,-0.0276,-0.0275,-0.0275,0,0.036,0.0387,0.0416,0.0446,0.0455,0.047,0.0483,0.0481,0.045,0.0418,0.04,0.0287,0.0166,0.0037,-0.012,-0.0178,-0.0294,-0.033,-0.0261,-0.0274,-0.03,-0.0291,-0.039,-0.0391,-0.0391,-0.0391,-0.0392,0,0.036,0.0381,0.0436,0.0457,0.0474,0.05,0.0519,0.0512,0.0509,0.0442,0.0425,0.0301,0.0217,0.0002,-0.0131,-0.0306,-0.0324,-0.0375,-0.0343,-0.0307,-0.0316,-0.0307,-0.0298,-0.0393,-0.0393,-0.0393,-0.0393,0,0.035,0.0382,0.0409,0.0464,0.0498,0.0526,0.0553,0.0556,0.0543,0.0523,0.0437,0.0315,0.0173,0.0005,-0.0136,-0.0259,-0.0338,-0.038,-0.0379,-0.035,-0.0311,-0.0318,-0.0308,-0.0395,-0.0394,-0.0394,-0.0394,0,0.0339,0.0359,0.0411,0.0447,0.0493,0.0526,0.0548,0.0549,0.0545,0.0494,0.0465,0.0308,0.0222,0.0028,-0.0105,-0.0226,-0.0244,-0.0263,-0.0269,-0.0269,-0.0207,-0.0138,-0.0196,0,0,0,0,0,0.0323,0.0348,0.0386,0.043,0.0478,0.0509,0.0551,0.057,0.0576,0.0529,0.0499,0.0369,0.0162,0.006,-0.0058,-0.0117,-0.0272,-0.0259,-0.0298,-0.0404,-0.0402,-0.0349,0,0,0,0,0,0,0.0312,0.0351,0.0376,0.0404,0.0435,0.0486,0.052,0.053,0.0506,0.0497,0.0385,0.0349,0.0142,0.0225,-0.0062,-0.0101,-0.0137,-0.0352,-0.0354,-0.0405,-0.0403,-0.0402,-0.0346,0,0,0,0,0]}]]